Time,TemperatureF,DewpointF,PressureIn,WindDirection,WindDirectionDegrees,WindSpeedMPH,WindSpeedGustMPH,Humidity,HourlyPrecipIn,Conditions,Clouds,dailyrainin,SoftwareType,DateUTC
2013-08-02 00:01:00,67.5,50.2,29.51,North,0,0.0,0.0,54,0.04,,---,0.00,VWS V13.01,2013-08-02 04:01:00,
2013-08-02 00:02:00,67.5,50.2,29.51,North,357,0.0,0.0,54,0.04,,---,0.00,VWS V13.01,2013-08-02 04:02:00,
2013-08-02 00:07:00,67.5,50.8,29.51,North,357,0.0,0.0,55,0.04,,---,0.00,VWS V13.01,2013-08-02 04:07:00,
2013-08-02 00:12:00,67.5,50.8,29.51,North,2,0.0,0.0,55,0.04,,---,0.00,VWS V13.01,2013-08-02 04:12:00,
2013-08-02 00:17:00,67.5,50.8,29.51,North,2,0.0,0.0,55,0.04,,---,0.00,VWS V13.01,2013-08-02 04:17:00,
2013-08-02 00:22:00,67.5,50.8,29.51,North,2,0.0,0.0,55,0.04,,---,0.00,VWS V13.01,2013-08-02 04:22:00,
2013-08-02 00:27:00,67.6,50.9,29.51,North,2,0.0,0.0,55,0.04,,---,0.00,VWS V13.01,2013-08-02 04:27:00,
2013-08-02 00:32:00,67.5,50.8,29.48,North,2,0.0,0.0,55,0.04,,---,0.00,VWS V13.01,2013-08-02 04:32:00,
2013-08-02 00:37:00,67.5,50.8,29.48,North,2,0.0,0.0,55,0.08,,---,0.04,VWS V13.01,2013-08-02 04:37:00,
2013-08-02 00:42:00,67.6,50.9,29.48,North,2,0.0,0.0,55,0.08,,---,0.04,VWS V13.01,2013-08-02 04:42:00,
2013-08-02 00:47:00,67.6,50.9,29.48,North,2,0.0,0.0,55,0.08,,---,0.04,VWS V13.01,2013-08-02 04:47:00,
2013-08-02 00:53:00,67.6,50.9,29.48,North,2,0.0,0.0,55,0.08,,---,0.04,VWS V13.01,2013-08-02 04:53:00,
2013-08-02 00:58:00,67.6,50.9,29.48,North,2,0.0,0.0,55,0.08,,---,0.04,VWS V13.01,2013-08-02 04:58:00,
2013-08-02 01:03:00,67.6,50.9,29.48,North,2,0.0,0.0,55,0.04,,---,0.04,VWS V13.01,2013-08-02 05:03:00,
2013-08-02 01:08:00,67.8,51.1,29.48,North,2,0.0,0.0,55,0.04,,---,0.04,VWS V13.01,2013-08-02 05:08:00,
2013-08-02 01:13:00,67.8,51.1,29.48,North,2,0.0,0.0,55,0.08,,---,0.08,VWS V13.01,2013-08-02 05:13:00,
2013-08-02 01:18:00,67.8,51.6,29.48,North,3,0.0,0.0,56,0.08,,---,0.16,VWS V13.01,2013-08-02 05:18:00,
2013-08-02 01:23:00,67.8,51.6,29.48,North,3,0.0,0.0,56,0.20,,---,0.20,VWS V13.01,2013-08-02 05:23:00,
2013-08-02 01:28:00,67.8,51.6,29.48,North,3,0.0,0.0,56,0.20,,---,0.20,VWS V13.01,2013-08-02 05:28:00,
2013-08-02 01:33:00,68.0,51.2,29.48,North,3,0.0,0.0,55,0.24,,---,0.24,VWS V13.01,2013-08-02 05:33:00,
2013-08-02 01:38:00,67.8,51.1,29.48,North,3,0.0,0.0,55,0.24,,---,0.24,VWS V13.01,2013-08-02 05:38:00,
2013-08-02 01:43:00,68.0,51.2,29.48,North,3,0.0,0.0,55,0.20,,---,0.24,VWS V13.01,2013-08-02 05:43:00,
2013-08-02 01:48:00,68.0,51.7,29.48,North,357,0.0,0.0,56,0.20,,---,0.24,VWS V13.01,2013-08-02 05:48:00,
2013-08-02 01:54:00,68.0,51.7,29.48,WSW,245,0.0,0.0,56,0.20,,---,0.24,VWS V13.01,2013-08-02 05:54:00,
2013-08-02 01:59:00,68.0,51.2,29.48,WSW,245,0.0,0.0,55,0.20,,---,0.24,VWS V13.01,2013-08-02 05:59:00,
2013-08-02 02:04:00,68.0,51.2,29.45,WSW,245,0.0,0.0,55,0.20,,---,0.24,VWS V13.01,2013-08-02 06:04:00,
2013-08-02 02:09:00,67.8,51.1,29.45,WSW,245,0.0,0.0,55,0.20,,---,0.24,VWS V13.01,2013-08-02 06:09:00,
2013-08-02 02:14:00,67.8,51.1,29.45,WSW,245,0.0,0.0,55,0.20,,---,0.24,VWS V13.01,2013-08-02 06:14:00,
2013-08-02 02:19:00,67.8,51.1,29.45,WSW,245,0.0,0.0,55,0.20,,---,0.24,VWS V13.01,2013-08-02 06:19:00,
2013-08-02 02:24:00,67.8,51.1,29.45,WSW,245,0.0,0.0,55,0.04,,---,0.24,VWS V13.01,2013-08-02 06:24:00,
2013-08-02 02:30:00,67.8,51.6,29.45,WSW,245,0.0,0.0,56,0.04,,---,0.24,VWS V13.01,2013-08-02 06:30:00,
2013-08-02 02:35:00,67.8,51.6,29.45,WSW,245,0.0,0.0,56,0.04,,---,0.24,VWS V13.01,2013-08-02 06:35:00,
2013-08-02 02:40:00,67.8,51.6,29.45,WSW,245,0.0,0.0,56,0.04,,---,0.24,VWS V13.01,2013-08-02 06:40:00,
2013-08-02 02:45:00,67.8,51.6,29.45,WSW,245,0.0,0.0,56,0.00,,---,0.24,VWS V13.01,2013-08-02 06:45:00,
2013-08-02 02:50:00,67.6,51.4,29.45,WSW,245,0.0,0.0,56,0.00,,---,0.24,VWS V13.01,2013-08-02 06:50:00,
2013-08-02 02:55:00,67.6,51.4,29.45,WSW,245,0.0,0.0,56,0.00,,---,0.24,VWS V13.01,2013-08-02 06:55:00,
2013-08-02 03:00:00,67.6,51.4,29.45,WSW,245,0.0,0.0,56,0.00,,---,0.24,VWS V13.01,2013-08-02 07:00:00,
2013-08-02 03:05:00,67.5,51.2,29.45,WSW,245,0.0,0.0,56,0.00,,---,0.24,VWS V13.01,2013-08-02 07:05:00,
2013-08-02 03:10:00,67.5,50.8,29.45,WSW,245,0.0,0.0,55,0.00,,---,0.24,VWS V13.01,2013-08-02 07:10:00,
2013-08-02 03:15:00,67.5,51.2,29.45,WSW,245,0.0,0.0,56,0.00,,---,0.24,VWS V13.01,2013-08-02 07:15:00,
2013-08-02 03:21:00,67.5,51.2,29.45,WSW,245,0.0,0.0,56,0.00,,---,0.24,VWS V13.01,2013-08-02 07:21:00,
2013-08-02 03:26:00,67.5,51.2,29.45,WSW,245,0.0,0.0,56,0.00,,---,0.24,VWS V13.01,2013-08-02 07:26:00,
2013-08-02 03:31:00,67.3,50.6,29.45,WSW,245,0.0,0.0,55,0.00,,---,0.24,VWS V13.01,2013-08-02 07:31:00,
2013-08-02 03:36:00,67.1,50.4,29.45,WSW,245,0.0,0.0,55,0.00,,---,0.24,VWS V13.01,2013-08-02 07:36:00,
2013-08-02 03:41:00,67.1,50.4,29.45,WSW,245,0.0,0.0,55,0.00,,---,0.24,VWS V13.01,2013-08-02 07:41:00,
2013-08-02 03:46:00,67.1,50.4,29.45,WSW,245,0.0,0.0,55,0.00,,---,0.24,VWS V13.01,2013-08-02 07:46:00,
2013-08-02 03:52:00,67.1,50.4,29.45,WSW,245,0.0,0.0,55,0.00,,---,0.24,VWS V13.01,2013-08-02 07:52:00,
2013-08-02 03:57:00,66.9,50.2,29.45,WSW,245,0.0,0.0,55,0.00,,---,0.24,VWS V13.01,2013-08-02 07:57:00,
2013-08-02 04:02:00,66.9,50.2,29.45,WSW,245,0.0,0.0,55,0.00,,---,0.24,VWS V13.01,2013-08-02 08:02:00,
2013-08-02 04:07:00,66.9,50.2,29.45,WSW,245,0.0,0.0,55,0.00,,---,0.24,VWS V13.01,2013-08-02 08:07:00,
2013-08-02 04:12:00,66.9,50.7,29.45,WSW,245,0.0,0.0,56,0.00,,---,0.24,VWS V13.01,2013-08-02 08:12:00,
2013-08-02 04:17:00,66.9,51.2,29.45,WSW,245,0.0,0.0,57,0.00,,---,0.24,VWS V13.01,2013-08-02 08:17:00,
2013-08-02 04:22:00,66.9,51.2,29.45,WSW,245,0.0,0.0,57,0.00,,---,0.24,VWS V13.01,2013-08-02 08:22:00,
2013-08-02 04:27:00,66.9,51.2,29.45,WSW,245,0.0,0.0,57,0.00,,---,0.24,VWS V13.01,2013-08-02 08:27:00,
2013-08-02 04:32:00,66.9,51.2,29.45,WSW,245,0.0,0.0,57,0.00,,---,0.24,VWS V13.01,2013-08-02 08:32:00,
2013-08-02 04:38:00,66.9,51.2,29.45,WSW,245,0.0,0.0,57,0.00,,---,0.24,VWS V13.01,2013-08-02 08:38:00,
2013-08-02 04:43:00,66.9,51.7,29.45,WSW,246,0.0,0.0,58,0.00,,---,0.24,VWS V13.01,2013-08-02 08:43:00,
2013-08-02 04:48:00,66.9,51.7,29.48,WSW,246,0.0,0.0,58,0.00,,---,0.24,VWS V13.01,2013-08-02 08:48:00,
2013-08-02 04:53:00,66.9,51.7,29.48,WSW,246,0.0,0.0,58,0.00,,---,0.24,VWS V13.01,2013-08-02 08:53:00,
2013-08-02 04:58:00,66.9,51.7,29.48,WSW,246,0.0,0.0,58,0.00,,---,0.24,VWS V13.01,2013-08-02 08:58:00,
2013-08-02 05:03:00,66.9,51.7,29.48,WSW,246,0.0,0.0,58,0.00,,---,0.24,VWS V13.01,2013-08-02 09:03:00,
2013-08-02 05:08:00,66.9,51.7,29.48,WSW,246,0.0,0.0,58,0.00,,---,0.24,VWS V13.01,2013-08-02 09:08:00,
2013-08-02 05:13:00,66.9,51.7,29.48,WSW,246,0.0,0.0,58,0.00,,---,0.24,VWS V13.01,2013-08-02 09:13:00,
2013-08-02 05:19:00,66.9,51.7,29.48,WSW,246,0.0,0.0,58,0.00,,---,0.24,VWS V13.01,2013-08-02 09:19:00,
2013-08-02 05:24:00,66.9,51.7,29.48,WSW,246,0.0,0.0,58,0.00,,---,0.24,VWS V13.01,2013-08-02 09:24:00,
2013-08-02 05:29:00,66.9,51.7,29.48,WSW,246,0.0,0.0,58,0.00,,---,0.24,VWS V13.01,2013-08-02 09:29:00,
2013-08-02 05:34:00,66.9,51.7,29.48,WSW,246,0.0,0.0,58,0.00,,---,0.24,VWS V13.01,2013-08-02 09:34:00,
2013-08-02 05:39:00,66.7,51.5,29.48,WSW,246,0.0,0.0,58,0.00,,---,0.24,VWS V13.01,2013-08-02 09:39:00,
2013-08-02 05:44:00,66.7,51.0,29.48,WSW,246,0.0,0.0,57,0.00,,---,0.24,VWS V13.01,2013-08-02 09:44:00,
2013-08-02 05:49:00,66.4,49.7,29.48,WSW,246,0.0,0.0,55,0.00,,---,0.24,VWS V13.01,2013-08-02 09:49:00,
2013-08-02 05:54:00,66.2,49.1,29.48,WSW,246,0.0,0.0,54,0.00,,---,0.24,VWS V13.01,2013-08-02 09:54:00,
2013-08-02 06:00:00,66.2,49.1,29.48,WSW,246,0.0,0.0,54,0.00,,---,0.24,VWS V13.01,2013-08-02 10:00:00,
2013-08-02 06:04:00,66.0,49.4,29.48,WSW,246,0.0,0.0,55,0.00,,---,0.24,VWS V13.01,2013-08-02 10:04:00,
2013-08-02 06:10:00,65.8,48.8,29.48,WSW,246,0.0,0.0,54,0.00,,---,0.24,VWS V13.01,2013-08-02 10:10:00,
2013-08-02 06:15:00,65.8,48.8,29.48,WSW,246,0.0,0.0,54,0.00,,---,0.24,VWS V13.01,2013-08-02 10:15:00,
2013-08-02 06:20:00,65.7,49.1,29.48,WSW,246,0.0,0.0,55,0.00,,---,0.24,VWS V13.01,2013-08-02 10:20:00,
2013-08-02 06:25:00,65.7,49.1,29.48,WSW,246,0.0,0.0,55,0.00,,---,0.24,VWS V13.01,2013-08-02 10:25:00,
2013-08-02 06:30:00,65.7,49.1,29.48,WSW,246,0.0,0.0,55,0.00,,---,0.24,VWS V13.01,2013-08-02 10:30:00,
2013-08-02 06:35:00,65.7,49.6,29.48,WSW,246,0.0,0.0,56,0.00,,---,0.24,VWS V13.01,2013-08-02 10:35:00,
2013-08-02 06:40:00,65.7,49.6,29.48,WSW,246,0.0,0.0,56,0.00,,---,0.24,VWS V13.01,2013-08-02 10:40:00,
2013-08-02 06:45:00,65.5,49.4,29.51,WSW,246,0.0,0.0,56,0.00,,---,0.24,VWS V13.01,2013-08-02 10:45:00,
2013-08-02 06:51:00,65.7,49.6,29.51,WSW,246,0.0,0.0,56,0.00,,---,0.24,VWS V13.01,2013-08-02 10:51:00,
2013-08-02 06:56:00,65.7,50.0,29.51,WSW,246,0.0,0.0,57,0.00,,---,0.24,VWS V13.01,2013-08-02 10:56:00,
2013-08-02 07:01:00,65.7,50.0,29.51,WSW,246,0.0,0.0,57,0.00,,---,0.24,VWS V13.01,2013-08-02 11:01:00,
2013-08-02 07:06:00,65.7,50.5,29.51,SE,138,0.0,0.0,58,0.00,,---,0.24,VWS V13.01,2013-08-02 11:06:00,
2013-08-02 07:11:00,65.8,51.1,29.51,SSW,212,0.0,0.0,59,0.00,,---,0.24,VWS V13.01,2013-08-02 11:11:00,
2013-08-02 07:16:00,66.0,51.3,29.51,WNW,286,0.0,0.0,59,0.00,,---,0.24,VWS V13.01,2013-08-02 11:16:00,
2013-08-02 07:21:00,66.0,51.3,29.51,WNW,286,0.0,0.0,59,0.00,,---,0.24,VWS V13.01,2013-08-02 11:21:00,
2013-08-02 07:26:00,66.0,51.3,29.51,WNW,286,0.0,0.0,59,0.00,,---,0.24,VWS V13.01,2013-08-02 11:26:00,
2013-08-02 07:32:00,66.2,51.5,29.51,WNW,286,0.0,0.0,59,0.00,,---,0.24,VWS V13.01,2013-08-02 11:32:00,
2013-08-02 07:37:00,66.2,51.5,29.51,WNW,290,0.0,0.0,59,0.00,,---,0.24,VWS V13.01,2013-08-02 11:37:00,
2013-08-02 07:42:00,66.4,52.1,29.51,WNW,290,0.0,0.0,60,0.00,,---,0.24,VWS V13.01,2013-08-02 11:42:00,
2013-08-02 07:47:00,66.4,51.6,29.51,WNW,290,0.0,0.0,59,0.00,,---,0.24,VWS V13.01,2013-08-02 11:47:00,
2013-08-02 07:52:00,66.6,51.8,29.51,WNW,290,0.0,0.0,59,0.00,,---,0.24,VWS V13.01,2013-08-02 11:52:00,
2013-08-02 07:57:00,66.6,51.8,29.51,NW,305,0.0,0.0,59,0.00,,---,0.24,VWS V13.01,2013-08-02 11:57:00,
2013-08-02 08:02:00,66.6,51.8,29.54,NNE,12,0.0,0.0,59,0.00,,---,0.24,VWS V13.01,2013-08-02 12:02:00,
2013-08-02 08:07:00,66.6,51.3,29.54,NW,315,0.0,0.0,58,0.00,,---,0.24,VWS V13.01,2013-08-02 12:07:00,
2013-08-02 08:12:00,66.7,52.0,29.54,NW,316,0.0,0.0,59,0.00,,---,0.24,VWS V13.01,2013-08-02 12:12:00,
2013-08-02 08:17:00,66.9,52.1,29.51,NW,316,0.0,0.0,59,0.00,,---,0.24,VWS V13.01,2013-08-02 12:17:00,
2013-08-02 08:22:00,67.1,52.3,29.51,NW,316,0.0,0.0,59,0.00,,---,0.24,VWS V13.01,2013-08-02 12:22:00,
2013-08-02 08:28:00,67.5,52.7,29.51,NW,316,0.0,0.0,59,0.00,,---,0.24,VWS V13.01,2013-08-02 12:28:00,
2013-08-02 08:33:00,67.6,53.3,29.54,NW,316,0.0,0.0,60,0.00,,---,0.24,VWS V13.01,2013-08-02 12:33:00,
2013-08-02 08:38:00,68.0,54.1,29.54,WNW,293,0.0,0.0,61,0.00,,---,0.24,VWS V13.01,2013-08-02 12:38:00,
2013-08-02 08:43:00,68.7,56.5,29.54,West,278,0.0,0.0,65,0.00,,---,0.24,VWS V13.01,2013-08-02 12:43:00,
2013-08-02 08:48:00,68.9,55.8,29.54,West,278,0.0,0.0,63,0.00,,---,0.24,VWS V13.01,2013-08-02 12:48:00,
2013-08-02 08:53:00,68.9,52.1,29.54,ENE,65,0.0,0.0,55,0.00,,---,0.24,VWS V13.01,2013-08-02 12:53:00,
2013-08-02 08:58:00,68.9,51.1,29.54,NW,319,0.0,0.0,53,0.00,,---,0.24,VWS V13.01,2013-08-02 12:58:00,
2013-08-02 09:03:00,68.9,50.0,29.54,West,272,0.0,0.0,51,0.00,,---,0.24,VWS V13.01,2013-08-02 13:03:00,
2013-08-02 09:08:00,69.3,49.8,29.54,WNW,298,0.0,0.0,50,0.00,,---,0.24,VWS V13.01,2013-08-02 13:08:00,
2013-08-02 09:13:00,69.3,48.8,29.54,NNW,346,0.0,0.0,48,0.00,,---,0.24,VWS V13.01,2013-08-02 13:13:00,
2013-08-02 09:19:00,69.3,47.6,29.54,WNW,295,0.0,0.0,46,0.00,,---,0.24,VWS V13.01,2013-08-02 13:19:00,
2013-08-02 09:24:00,71.1,48.1,29.54,NNW,345,0.0,0.0,44,0.00,,---,0.24,VWS V13.01,2013-08-02 13:24:00,
2013-08-02 09:29:00,71.6,44.7,29.54,NW,315,0.0,0.0,38,0.00,,---,0.24,VWS V13.01,2013-08-02 13:29:00,
2013-08-02 09:34:00,73.0,43.8,29.54,North,2,0.0,0.0,35,0.00,,---,0.24,VWS V13.01,2013-08-02 13:34:00,
2013-08-02 09:39:00,72.3,36.5,29.54,North,357,0.0,0.0,27,0.00,,---,0.24,VWS V13.01,2013-08-02 13:39:00,
2013-08-02 09:44:00,71.8,38.7,29.54,North,357,0.0,0.0,30,0.00,,---,0.24,VWS V13.01,2013-08-02 13:44:00,
2013-08-02 09:49:00,71.2,39.9,29.54,North,353,0.0,0.0,32,0.00,,---,0.24,VWS V13.01,2013-08-02 13:49:00,
2013-08-02 09:54:00,71.1,39.7,29.54,North,353,0.0,0.0,32,0.00,,---,0.24,VWS V13.01,2013-08-02 13:54:00,
2013-08-02 10:00:00,71.4,40.8,29.54,North,353,0.0,0.0,33,0.00,,---,0.24,VWS V13.01,2013-08-02 14:00:00,
2013-08-02 10:05:00,71.2,39.9,29.54,NW,307,0.0,0.0,32,0.00,,---,0.24,VWS V13.01,2013-08-02 14:05:00,
2013-08-02 10:10:00,71.1,38.1,29.54,WNW,303,0.0,0.0,30,0.00,,---,0.24,VWS V13.01,2013-08-02 14:10:00,
2013-08-02 10:15:00,71.1,39.7,29.54,NW,313,0.0,0.0,32,0.00,,---,0.24,VWS V13.01,2013-08-02 14:15:00,
2013-08-02 10:20:00,71.2,39.9,29.54,NW,311,0.0,0.0,32,0.00,,---,0.24,VWS V13.01,2013-08-02 14:20:00,
2013-08-02 10:25:00,71.2,39.1,29.54,NW,313,0.0,0.0,31,0.00,,---,0.24,VWS V13.01,2013-08-02 14:25:00,
2013-08-02 10:30:00,71.2,35.6,29.54,NW,307,0.0,0.0,27,0.00,,---,0.24,VWS V13.01,2013-08-02 14:30:00,
2013-08-02 10:35:00,71.6,34.9,29.54,WNW,299,0.0,0.0,26,0.00,,---,0.24,VWS V13.01,2013-08-02 14:35:00,
2013-08-02 10:40:00,72.0,35.2,29.54,NW,311,0.0,0.0,26,0.00,,---,0.24,VWS V13.01,2013-08-02 14:40:00,
2013-08-02 10:45:00,72.3,33.5,29.54,NNW,337,0.0,0.0,24,0.00,,---,0.24,VWS V13.01,2013-08-02 14:45:00,
2013-08-02 10:51:00,72.3,32.5,29.54,NW,304,0.0,0.0,23,0.00,,---,0.24,VWS V13.01,2013-08-02 14:51:00,
2013-08-02 10:56:00,72.3,33.5,29.54,NW,311,0.0,2.7,24,0.00,,---,0.24,VWS V13.01,2013-08-02 14:56:00,
2013-08-02 11:01:00,72.1,31.2,29.54,West,278,0.0,0.0,22,0.00,,---,0.24,VWS V13.01,2013-08-02 15:01:00,
2013-08-02 11:06:00,72.5,31.5,29.54,WNW,299,0.0,0.0,22,0.00,,---,0.24,VWS V13.01,2013-08-02 15:06:00,
2013-08-02 11:12:00,73.0,32.0,29.54,NW,315,0.0,0.0,22,0.00,,---,0.24,VWS V13.01,2013-08-02 15:12:00,
2013-08-02 11:17:00,73.4,31.1,29.54,WNW,296,0.0,0.0,21,0.00,,---,0.24,VWS V13.01,2013-08-02 15:17:00,
2013-08-02 11:22:00,73.6,31.3,29.54,NW,314,0.0,0.0,21,0.00,,---,0.24,VWS V13.01,2013-08-02 15:22:00,
2013-08-02 11:27:00,73.6,31.3,29.54,NW,320,0.0,0.0,21,0.00,,---,0.24,VWS V13.01,2013-08-02 15:27:00,
2013-08-02 11:32:00,73.8,31.4,29.54,WNW,289,0.0,0.0,21,0.00,,---,0.24,VWS V13.01,2013-08-02 15:32:00,
2013-08-02 11:37:00,74.1,31.7,29.54,West,271,0.0,0.0,21,0.00,,---,0.24,VWS V13.01,2013-08-02 15:37:00,
2013-08-02 11:43:00,74.1,31.7,29.54,NNW,336,0.0,0.0,21,0.00,,---,0.24,VWS V13.01,2013-08-02 15:43:00,
2013-08-02 11:48:00,74.3,31.9,29.54,NNE,15,0.0,0.0,21,0.00,,---,0.24,VWS V13.01,2013-08-02 15:48:00,
2013-08-02 11:53:00,74.3,28.1,29.54,NW,315,0.0,0.0,18,0.00,,---,0.24,VWS V13.01,2013-08-02 15:53:00,
2013-08-02 11:58:00,75.0,32.5,29.54,NW,319,0.0,0.0,21,0.00,,---,0.24,VWS V13.01,2013-08-02 15:58:00,
2013-08-02 12:03:00,75.2,24.4,29.54,WNW,303,0.0,0.0,15,0.00,,---,0.24,VWS V13.01,2013-08-02 16:03:00,
2013-08-02 12:08:00,75.6,29.1,29.54,NW,317,0.0,0.0,18,0.00,,---,0.24,VWS V13.01,2013-08-02 16:08:00,
2013-08-02 12:13:00,75.7,24.9,29.54,NNW,342,0.0,0.0,15,0.00,,---,0.24,VWS V13.01,2013-08-02 16:13:00,
2013-08-02 12:18:00,76.3,25.3,29.54,West,261,0.0,0.0,15,0.00,,---,0.24,VWS V13.01,2013-08-02 16:18:00,
2013-08-02 12:23:00,76.5,25.4,29.54,WNW,294,0.0,0.0,15,0.00,,---,0.24,VWS V13.01,2013-08-02 16:23:00,
2013-08-02 12:28:00,76.6,25.6,29.54,WNW,302,0.0,0.0,15,0.00,,---,0.24,VWS V13.01,2013-08-02 16:28:00,
2013-08-02 12:33:00,76.1,21.7,29.54,NW,319,0.0,0.0,13,0.00,,---,0.24,VWS V13.01,2013-08-02 16:33:00,
2013-08-02 12:38:00,76.1,21.7,29.54,WNW,294,0.0,0.0,13,0.00,,---,0.24,VWS V13.01,2013-08-02 16:38:00,
2013-08-02 12:44:00,76.6,22.1,29.54,WNW,295,0.0,0.0,13,0.00,,---,0.24,VWS V13.01,2013-08-02 16:44:00,
2013-08-02 12:49:00,77.0,25.9,29.54,NW,316,0.0,0.0,15,0.00,,---,0.24,VWS V13.01,2013-08-02 16:49:00,
2013-08-02 12:54:00,77.2,26.0,29.54,NW,326,0.0,0.0,15,0.00,,---,0.24,VWS V13.01,2013-08-02 16:54:00,
2013-08-02 12:59:00,77.4,26.1,29.54,NNW,342,0.0,0.0,15,0.00,,---,0.24,VWS V13.01,2013-08-02 16:59:00,
2013-08-02 13:04:00,77.5,22.9,29.54,ENE,72,0.0,0.0,13,0.00,,---,0.24,VWS V13.01,2013-08-02 17:04:00,
2013-08-02 13:09:00,78.3,26.9,29.54,NNW,348,0.0,0.0,15,0.00,,---,0.24,VWS V13.01,2013-08-02 17:09:00,
2013-08-02 13:14:00,77.9,23.1,29.54,WNW,283,0.0,0.0,13,0.00,,---,0.24,VWS V13.01,2013-08-02 17:14:00,
2013-08-02 13:19:00,77.9,23.1,29.54,WSW,249,3.6,3.6,13,0.00,,---,0.24,VWS V13.01,2013-08-02 17:19:00,
2013-08-02 13:24:00,78.1,23.3,29.54,WSW,251,0.0,0.0,13,0.00,,---,0.24,VWS V13.01,2013-08-02 17:24:00,
2013-08-02 13:29:00,78.8,22.0,29.54,WSW,247,0.0,0.0,12,0.00,,---,0.24,VWS V13.01,2013-08-02 17:29:00,
2013-08-02 13:34:00,79.0,22.1,29.54,West,278,0.0,0.0,12,0.00,,---,0.24,VWS V13.01,2013-08-02 17:34:00,
2013-08-02 13:40:00,78.6,23.7,29.54,ESE,123,0.0,0.0,13,0.00,,---,0.24,VWS V13.01,2013-08-02 17:40:00,
2013-08-02 13:45:00,78.8,22.0,29.51,West,277,0.0,0.0,12,0.00,,---,0.24,VWS V13.01,2013-08-02 17:45:00,
2013-08-02 13:50:00,78.3,23.4,29.51,NNW,330,0.0,0.0,13,0.00,,---,0.24,VWS V13.01,2013-08-02 17:50:00,
2013-08-02 13:55:00,78.4,23.6,29.51,WNW,300,0.0,0.0,13,0.00,,---,0.24,VWS V13.01,2013-08-02 17:55:00,
2013-08-02 14:00:00,78.8,22.0,29.51,WNW,297,0.0,0.0,12,0.00,,---,0.24,VWS V13.01,2013-08-02 18:00:00,
2013-08-02 14:05:00,79.0,22.1,29.51,West,269,0.0,0.0,12,0.00,,---,0.24,VWS V13.01,2013-08-02 18:05:00,
2013-08-02 14:10:00,79.3,22.4,29.51,West,269,0.0,2.7,12,0.00,,---,0.24,VWS V13.01,2013-08-02 18:10:00,
2013-08-02 14:15:00,79.3,22.4,29.54,WSW,253,0.0,2.7,12,0.00,,---,0.24,VWS V13.01,2013-08-02 18:15:00,
2013-08-02 14:20:00,79.3,22.4,29.54,SSW,196,0.0,0.0,12,0.00,,---,0.24,VWS V13.01,2013-08-02 18:20:00,
2013-08-02 14:25:00,79.3,22.4,29.54,WSW,253,0.0,0.0,12,0.00,,---,0.24,VWS V13.01,2013-08-02 18:25:00,
2013-08-02 14:30:00,79.3,22.4,29.54,WNW,288,0.0,0.0,12,0.00,,---,0.24,VWS V13.01,2013-08-02 18:30:00,
2013-08-02 14:36:00,79.5,22.5,29.54,West,268,0.0,0.0,12,0.00,,---,0.24,VWS V13.01,2013-08-02 18:36:00,
2013-08-02 14:41:00,79.5,22.5,29.54,West,270,0.0,3.6,12,0.00,,---,0.24,VWS V13.01,2013-08-02 18:41:00,
2013-08-02 14:46:00,79.7,22.6,29.54,SW,236,0.0,4.5,12,0.00,,---,0.24,VWS V13.01,2013-08-02 18:46:00,
2013-08-02 14:51:00,79.7,22.6,29.54,North,353,0.0,4.5,12,0.00,,---,0.24,VWS V13.01,2013-08-02 18:51:00,
2013-08-02 14:56:00,80.1,22.9,29.54,West,268,0.0,4.5,12,0.00,,---,0.24,VWS V13.01,2013-08-02 18:56:00,
2013-08-02 15:01:00,80.1,22.9,29.54,NNW,334,0.0,0.0,12,0.00,,---,0.24,VWS V13.01,2013-08-02 19:01:00,
2013-08-02 15:06:00,80.2,23.1,29.54,NNW,341,0.0,2.7,12,0.00,,---,0.24,VWS V13.01,2013-08-02 19:06:00,
2013-08-02 15:11:00,80.1,22.9,29.54,WSW,245,0.0,3.1,12,0.00,,---,0.24,VWS V13.01,2013-08-02 19:11:00,
2013-08-02 15:16:00,80.1,22.9,29.54,NW,325,0.0,3.1,12,0.00,,---,0.24,VWS V13.01,2013-08-02 19:16:00,
2013-08-02 15:22:00,80.1,22.9,29.54,NNW,342,3.6,3.6,12,0.00,,---,0.24,VWS V13.01,2013-08-02 19:22:00,
2013-08-02 15:27:00,80.1,22.9,29.54,WNW,282,0.0,3.6,12,0.00,,---,0.24,VWS V13.01,2013-08-02 19:27:00,
2013-08-02 15:32:00,80.1,22.9,29.51,WNW,302,0.0,3.6,12,0.00,,---,0.24,VWS V13.01,2013-08-02 19:32:00,
2013-08-02 15:37:00,79.7,22.6,29.51,NW,306,0.0,3.6,12,0.00,,---,0.24,VWS V13.01,2013-08-02 19:37:00,
2013-08-02 15:42:00,79.7,22.6,29.51,WNW,291,0.0,0.0,12,0.00,,---,0.24,VWS V13.01,2013-08-02 19:42:00,
2013-08-02 15:47:00,79.7,22.6,29.54,North,357,0.0,0.0,12,0.00,,---,0.24,VWS V13.01,2013-08-02 19:47:00,
2013-08-02 15:52:00,79.7,22.6,29.54,NW,304,0.0,0.0,12,0.00,,---,0.24,VWS V13.01,2013-08-02 19:52:00,
2013-08-02 15:57:00,79.7,22.6,29.54,WNW,282,0.0,0.0,12,0.00,,---,0.24,VWS V13.01,2013-08-02 19:57:00,
2013-08-02 16:02:00,79.7,22.6,29.51,WSW,248,0.0,0.0,12,0.00,,---,0.24,VWS V13.01,2013-08-02 20:02:00,
2013-08-02 16:08:00,79.3,22.4,29.51,NW,321,0.0,2.7,12,0.00,,---,0.24,VWS V13.01,2013-08-02 20:08:00,
2013-08-02 16:13:00,79.2,22.2,29.51,NW,310,0.0,2.7,12,0.00,,---,0.24,VWS V13.01,2013-08-02 20:13:00,
2013-08-02 16:18:00,79.3,22.4,29.51,WSW,240,0.0,2.7,12,0.00,,---,0.24,VWS V13.01,2013-08-02 20:18:00,
2013-08-02 16:23:00,79.3,22.4,29.51,West,262,0.0,0.0,12,0.00,,---,0.24,VWS V13.01,2013-08-02 20:23:00,
2013-08-02 16:28:00,79.3,22.4,29.51,WSW,247,0.0,0.0,12,0.00,,---,0.24,VWS V13.01,2013-08-02 20:28:00,
2013-08-02 16:33:00,79.5,22.5,29.51,WNW,287,0.0,0.0,12,0.00,,---,0.24,VWS V13.01,2013-08-02 20:33:00,
2013-08-02 16:38:00,79.5,22.5,29.51,West,262,0.0,0.0,12,0.00,,---,0.24,VWS V13.01,2013-08-02 20:38:00,
2013-08-02 16:44:00,79.3,22.4,29.51,North,353,0.0,0.0,12,0.00,,---,0.24,VWS V13.01,2013-08-02 20:44:00,
2013-08-02 16:49:00,79.0,22.1,29.51,WNW,291,0.0,0.0,12,0.00,,---,0.24,VWS V13.01,2013-08-02 20:49:00,
2013-08-02 16:54:00,79.0,22.1,29.51,WSW,237,0.0,0.0,12,0.00,,---,0.24,VWS V13.01,2013-08-02 20:54:00,
2013-08-02 16:59:00,79.0,22.1,29.51,WSW,255,0.0,0.0,12,0.00,,---,0.24,VWS V13.01,2013-08-02 20:59:00,
2013-08-02 17:04:00,79.0,22.1,29.51,WNW,291,0.0,0.0,12,0.00,,---,0.24,VWS V13.01,2013-08-02 21:04:00,
2013-08-02 17:09:00,79.0,22.1,29.51,West,271,0.0,0.0,12,0.00,,---,0.24,VWS V13.01,2013-08-02 21:09:00,
2013-08-02 17:14:00,78.8,22.0,29.51,WNW,293,0.0,0.0,12,0.00,,---,0.24,VWS V13.01,2013-08-02 21:14:00,
2013-08-02 17:19:00,78.8,22.0,29.51,North,349,0.0,0.0,12,0.00,,---,0.24,VWS V13.01,2013-08-02 21:19:00,
2013-08-02 17:25:00,78.4,23.6,29.51,NW,316,0.0,0.0,13,0.00,,---,0.24,VWS V13.01,2013-08-02 21:25:00,
2013-08-02 17:30:00,77.9,23.1,29.51,NW,316,0.0,0.0,13,0.00,,---,0.24,VWS V13.01,2013-08-02 21:30:00,
2013-08-02 17:35:00,77.9,23.1,29.51,NW,316,0.0,0.0,13,0.00,,---,0.24,VWS V13.01,2013-08-02 21:35:00,
2013-08-02 17:40:00,77.9,23.1,29.51,NW,312,0.0,0.0,13,0.00,,---,0.24,VWS V13.01,2013-08-02 21:40:00,
2013-08-02 17:45:00,77.9,23.1,29.51,NW,312,0.0,0.0,13,0.00,,---,0.24,VWS V13.01,2013-08-02 21:45:00,
2013-08-02 17:50:00,77.0,22.4,29.51,NW,312,0.0,0.0,13,0.00,,---,0.24,VWS V13.01,2013-08-02 21:50:00,
2013-08-02 17:55:00,77.0,22.4,29.51,NW,312,0.0,0.0,13,0.00,,---,0.24,VWS V13.01,2013-08-02 21:55:00,
2013-08-02 18:00:00,77.0,22.4,29.51,NW,312,0.0,0.0,13,0.00,,---,0.24,VWS V13.01,2013-08-02 22:00:00,
2013-08-02 18:05:00,77.2,22.6,29.51,NW,313,0.0,0.0,13,0.00,,---,0.24,VWS V13.01,2013-08-02 22:05:00,
2013-08-02 18:10:00,77.2,22.6,29.51,NW,312,0.0,0.0,13,0.00,,---,0.24,VWS V13.01,2013-08-02 22:10:00,
2013-08-02 18:15:00,77.2,22.6,29.51,NW,312,0.0,0.0,13,0.00,,---,0.24,VWS V13.01,2013-08-02 22:15:00,
2013-08-02 18:20:00,76.5,22.0,29.51,NW,308,0.0,0.0,13,0.00,,---,0.24,VWS V13.01,2013-08-02 22:20:00,
2013-08-02 18:25:00,76.1,21.7,29.51,NW,308,0.0,0.0,13,0.00,,---,0.24,VWS V13.01,2013-08-02 22:25:00,
2013-08-02 18:31:00,75.7,21.5,29.51,NW,308,0.0,0.0,13,0.00,,---,0.24,VWS V13.01,2013-08-02 22:31:00,
2013-08-02 18:36:00,75.4,21.2,29.51,NW,308,0.0,0.0,13,0.00,,---,0.24,VWS V13.01,2013-08-02 22:36:00,
2013-08-02 18:41:00,75.2,24.4,29.51,NW,308,0.0,0.0,15,0.00,,---,0.24,VWS V13.01,2013-08-02 22:41:00,
2013-08-02 18:46:00,74.8,25.7,29.51,NW,308,0.0,0.0,16,0.00,,---,0.24,VWS V13.01,2013-08-02 22:46:00,
2013-08-02 18:51:00,74.7,25.5,29.51,NW,308,0.0,0.0,16,0.00,,---,0.24,VWS V13.01,2013-08-02 22:51:00,
2013-08-02 18:56:00,74.5,25.4,29.51,NW,308,0.0,0.0,16,0.00,,---,0.24,VWS V13.01,2013-08-02 22:56:00,
2013-08-02 19:01:00,74.5,25.4,29.51,NW,308,0.0,0.0,16,0.00,,---,0.24,VWS V13.01,2013-08-02 23:01:00,
2013-08-02 19:06:00,74.5,25.4,29.51,NW,308,0.0,0.0,16,0.00,,---,0.24,VWS V13.01,2013-08-02 23:06:00,
2013-08-02 19:11:00,74.5,28.2,29.51,NNE,28,0.0,0.0,18,0.00,,---,0.24,VWS V13.01,2013-08-02 23:11:00,
2013-08-02 19:16:00,74.3,28.1,29.51,North,7,0.0,0.0,18,0.00,,---,0.24,VWS V13.01,2013-08-02 23:16:00,
2013-08-02 19:22:00,74.1,27.9,29.51,North,7,0.0,0.0,18,0.00,,---,0.24,VWS V13.01,2013-08-02 23:22:00,
2013-08-02 19:27:00,73.9,27.8,29.51,North,7,0.0,0.0,18,0.00,,---,0.24,VWS V13.01,2013-08-02 23:27:00,
2013-08-02 19:32:00,73.6,27.5,29.51,North,7,0.0,0.0,18,0.00,,---,0.24,VWS V13.01,2013-08-02 23:32:00,
2013-08-02 19:37:00,73.2,28.5,29.51,North,7,0.0,0.0,19,0.00,,---,0.24,VWS V13.01,2013-08-02 23:37:00,
2013-08-02 19:42:00,73.0,30.8,29.51,WSW,251,0.0,0.0,21,0.00,,---,0.24,VWS V13.01,2013-08-02 23:42:00,
2013-08-02 19:47:00,72.9,30.7,29.51,WSW,251,0.0,0.0,21,0.00,,---,0.24,VWS V13.01,2013-08-02 23:47:00,
2013-08-02 19:52:00,72.7,31.7,29.51,WSW,251,0.0,0.0,22,0.00,,---,0.24,VWS V13.01,2013-08-02 23:52:00,
2013-08-02 19:57:00,72.3,31.4,29.51,WSW,251,0.0,0.0,22,0.00,,---,0.24,VWS V13.01,2013-08-02 23:57:00,
2013-08-02 20:02:00,72.1,31.2,29.54,WSW,251,0.0,0.0,22,0.00,,---,0.24,VWS V13.01,2013-08-03 00:02:00,
2013-08-02 20:07:00,71.8,29.8,29.54,WSW,251,0.0,0.0,21,0.00,,---,0.24,VWS V13.01,2013-08-03 00:07:00,
2013-08-02 20:12:00,71.4,30.6,29.54,WSW,251,0.0,0.0,22,0.00,,---,0.24,VWS V13.01,2013-08-03 00:12:00,
2013-08-02 20:17:00,71.2,30.5,29.54,WSW,251,0.0,0.0,22,0.00,,---,0.24,VWS V13.01,2013-08-03 00:17:00,
2013-08-02 20:22:00,70.7,30.0,29.54,WSW,251,0.0,0.0,22,0.00,,---,0.24,VWS V13.01,2013-08-03 00:22:00,
2013-08-02 20:28:00,70.5,29.9,29.54,WSW,251,0.0,0.0,22,0.00,,---,0.24,VWS V13.01,2013-08-03 00:28:00,
2013-08-02 20:33:00,70.3,29.7,29.54,WSW,251,0.0,0.0,22,0.00,,---,0.24,VWS V13.01,2013-08-03 00:33:00,
2013-08-02 20:38:00,70.0,29.4,29.54,WSW,251,0.0,0.0,22,0.00,,---,0.24,VWS V13.01,2013-08-03 00:38:00,
2013-08-02 20:43:00,69.8,29.3,29.54,WSW,251,0.0,0.0,22,0.00,,---,0.24,VWS V13.01,2013-08-03 00:43:00,
2013-08-02 20:48:00,69.4,30.1,29.54,WSW,251,0.0,0.0,23,0.00,,---,0.24,VWS V13.01,2013-08-03 00:48:00,
2013-08-02 20:53:00,69.3,29.9,29.54,WSW,251,0.0,0.0,23,0.00,,---,0.24,VWS V13.01,2013-08-03 00:53:00,
2013-08-02 20:58:00,69.1,29.8,29.54,WSW,251,0.0,0.0,23,0.00,,---,0.24,VWS V13.01,2013-08-03 00:58:00,
2013-08-02 21:03:00,68.9,29.6,29.54,WSW,251,0.0,0.0,23,0.00,,---,0.24,VWS V13.01,2013-08-03 01:03:00,
2013-08-02 21:08:00,68.9,29.6,29.54,WSW,251,0.0,0.0,23,0.00,,---,0.24,VWS V13.01,2013-08-03 01:08:00,
2013-08-02 21:13:00,68.4,29.1,29.54,WSW,251,0.0,0.0,23,0.00,,---,0.24,VWS V13.01,2013-08-03 01:13:00,
2013-08-02 21:18:00,68.2,29.0,29.54,WSW,251,0.0,0.0,23,0.00,,---,0.24,VWS V13.01,2013-08-03 01:18:00,
2013-08-02 21:24:00,68.2,29.0,29.54,WSW,251,0.0,0.0,23,0.00,,---,0.24,VWS V13.01,2013-08-03 01:24:00,
2013-08-02 21:29:00,68.2,29.0,29.54,WSW,251,0.0,0.0,23,0.00,,---,0.24,VWS V13.01,2013-08-03 01:29:00,
2013-08-02 21:34:00,68.2,29.0,29.54,WSW,251,0.0,0.0,23,0.00,,---,0.24,VWS V13.01,2013-08-03 01:34:00,
2013-08-02 21:39:00,68.2,29.0,29.54,WSW,251,0.0,0.0,23,0.00,,---,0.24,VWS V13.01,2013-08-03 01:39:00,
2013-08-02 21:44:00,68.2,29.0,29.54,WSW,251,0.0,0.0,23,0.00,,---,0.24,VWS V13.01,2013-08-03 01:44:00,
2013-08-02 21:49:00,67.3,30.3,29.54,WSW,251,0.0,0.0,25,0.00,,---,0.24,VWS V13.01,2013-08-03 01:49:00,
2013-08-02 21:54:00,67.3,30.3,29.54,WSW,251,0.0,0.0,25,0.00,,---,0.24,VWS V13.01,2013-08-03 01:54:00,
2013-08-02 21:59:00,67.3,30.3,29.57,WSW,251,0.0,0.0,25,0.00,,---,0.24,VWS V13.01,2013-08-03 01:59:00,
2013-08-02 22:05:00,67.3,30.3,29.57,WSW,251,0.0,0.0,25,0.00,,---,0.24,VWS V13.01,2013-08-03 02:05:00,
2013-08-02 22:09:00,67.3,30.3,29.57,WSW,251,0.0,0.0,25,0.00,,---,0.24,VWS V13.01,2013-08-03 02:09:00,
2013-08-02 22:15:00,67.3,30.3,29.54,WSW,251,0.0,0.0,25,0.00,,---,0.24,VWS V13.01,2013-08-03 02:15:00,
2013-08-02 22:20:00,67.3,30.3,29.54,WSW,251,0.0,0.0,25,0.00,,---,0.24,VWS V13.01,2013-08-03 02:20:00,
2013-08-02 22:25:00,67.3,30.3,29.54,WSW,251,0.0,0.0,25,0.00,,---,0.24,VWS V13.01,2013-08-03 02:25:00,
2013-08-02 22:30:00,67.3,30.3,29.57,WSW,251,0.0,0.0,25,0.00,,---,0.24,VWS V13.01,2013-08-03 02:30:00,
2013-08-02 22:35:00,67.3,30.3,29.57,WSW,251,0.0,0.0,25,0.00,,---,0.24,VWS V13.01,2013-08-03 02:35:00,
2013-08-02 22:40:00,67.3,30.3,29.57,WSW,251,0.0,0.0,25,0.00,,---,0.24,VWS V13.01,2013-08-03 02:40:00,
2013-08-02 22:45:00,67.3,30.3,29.57,WSW,251,0.0,0.0,25,0.00,,---,0.24,VWS V13.01,2013-08-03 02:45:00,
2013-08-02 22:50:00,67.3,30.3,29.57,WSW,251,0.0,0.0,25,0.00,,---,0.24,VWS V13.01,2013-08-03 02:50:00,
2013-08-02 22:56:00,67.3,30.3,29.57,WSW,251,0.0,0.0,25,0.00,,---,0.24,VWS V13.01,2013-08-03 02:56:00,
2013-08-02 23:01:00,66.0,32.9,29.57,WSW,251,0.0,0.0,29,0.00,,---,0.24,VWS V13.01,2013-08-03 03:01:00,
2013-08-02 23:06:00,66.0,32.9,29.57,WSW,251,0.0,0.0,29,0.00,,---,0.24,VWS V13.01,2013-08-03 03:06:00,
2013-08-02 23:11:00,66.0,32.9,29.57,WSW,251,0.0,0.0,29,0.00,,---,0.24,VWS V13.01,2013-08-03 03:11:00,
2013-08-02 23:16:00,66.0,32.9,29.57,WSW,251,0.0,0.0,29,0.00,,---,0.24,VWS V13.01,2013-08-03 03:16:00,
2013-08-02 23:21:00,66.0,32.9,29.57,WSW,251,0.0,0.0,29,0.00,,---,0.24,VWS V13.01,2013-08-03 03:21:00,
2013-08-02 23:26:00,66.0,32.9,29.57,WSW,251,0.0,0.0,29,0.00,,---,0.24,VWS V13.01,2013-08-03 03:26:00,
2013-08-02 23:31:00,65.7,33.4,29.57,WSW,251,0.0,0.0,30,0.00,,---,0.24,VWS V13.01,2013-08-03 03:31:00,
2013-08-02 23:36:00,65.7,33.4,29.57,WSW,251,0.0,0.0,30,0.00,,---,0.24,VWS V13.01,2013-08-03 03:36:00,
2013-08-02 23:41:00,65.7,33.4,29.57,WSW,251,0.0,0.0,30,0.00,,---,0.24,VWS V13.01,2013-08-03 03:41:00,
2013-08-02 23:47:00,65.5,33.3,29.57,WSW,251,0.0,0.0,30,0.00,,---,0.24,VWS V13.01,2013-08-03 03:47:00,
2013-08-02 23:52:00,65.5,33.3,29.57,WSW,251,0.0,0.0,30,0.00,,---,0.24,VWS V13.01,2013-08-03 03:52:00,
2013-08-02 23:57:00,65.5,33.3,29.57,WSW,251,0.0,0.0,30,0.00,,---,0.24,VWS V13.01,2013-08-03 03:57:00,